CZ-3C DEB, 39350

Orbit data source: Space-Track

CZ-3C DEB, 39350 is space debris in HEO originally from a launch on Sun, 31 Oct 2010 UTC launched from the Xichang Space Center, China (XSC). Debris objects in space refer to the collection of defunct objects orbiting the Earth. Examples of debris include non-operational satellites, rocket bodies, and fragments generated from explosions, collisions, or faulty payload assembly.

Not visible in the next 10 days
Identifier
39350, 2010-057Q
Orbit
HEO
Country
Flag of CNCN / PRC
Related business
Manufacturer
CALT
Mission
Spacecraft
Bus & Motor
Unknown
Mass
Unknown
Launch date (UTC)
2010-10-31 (15 years ago)
Launch vehicle
Unknown
Launch site
Xichang Space Center, China (XSC)
Object type
Payload
Rocket body
Debris
Shape & HBR
Unknown shape, 0.3 m
Radar Cross Section
Medium (>0.1 m² and <1 m²)

Expand to show TLE details & history
Last TLE update: 3 days ago

TLE from 3 days ago
0 CZ-3C DEB
1 39350U 10057Q   25291.26778279  .00000415  00000-0  28650-2 0  9993
2 39350  19.5573 130.6326 7230690 110.9122   9.4953  2.22844194 94577
Epoch: 2025-10-18T06:25Z
TLE epoch observation values (Epoch: 2025-10-18T06:25:36.433Z)
Latitude
0.04471°
Longitude
-172.7224°
Altitude
3,007.96 km
Speed
8.296 km/s
True Right ascension
20h 42m 43s
True Declination
0° 02' 40"
Sunlit
Object was in daylight at epoch
Visualization orbit readout
Latitude
Unknown
Longitude
Unknown
Altitude
Unknown
Speed
Unknown
Apparent Right ascension
Unknown
Apparent Declination
Unknown
Sunlit
N/A
Visualization observer readout
Local Sidereal Time
21:44:43
Azimuth
Unknown
Elevation
Unknown
Doppler factor
Unknown
Orbital elements
Apogee altitude
36,291.208 km
Perigee altitude
479.664 km
Semi-major axis
24,763.573 km
Eccentricity
0.72307
Inclination
19.5573°
RAAN
130.6326°
Arg. of periapsis
110.9122°
True anomaly
68.54223°
Mean anomaly
9.4953°
Eccentric anomaly
30.55835°
Mean motion
0.55696 °/min
Orbital period
646.37 mins
BSTAR
0.002865
Loading maneuver chart data...
Computing Atmospheric mass density...
Loading historical data...
Loading historical data...
Loading historical data...
Loading historical data...
Loading historical data...
Loading historical data...
Loading historical data...

Documentation

Showing up to 5 results
|